This demonstration page uses our WeatherBlox Daily Observations layout. Learn more.

Left ArrowRight Arrow

Hourly Observations for May 2, 2021

Temp ( °F °C ) Dew Point ( °F °C ) Humidity (%) Winds ( mph kmh ) Pressure ( in mb ) Visibility ( mi km ) Precip ( " mm )
12:56 am 00:56 Clear 67 19.4 57 13.9 71 71 S 20 31 29.52 1000 10 16 0.00 0.00
1:56 am 01:56 Clear 66 18.9 58 14.4 75 75 SSW 21 33 29.50 999 10 16 0.00 0.00
2:56 am 02:56 Clear 64 17.8 57 13.9 78 78 SSW 16 26 29.49 999 10 16 0.00 0.00
3:56 am 03:56 Clear 63 17.2 57 13.9 81 81 SSW 9 15 29.49 999 10 16 0.00 0.00
4:56 am 04:56 Clear 59 15 56 13.3 90 90 S 13 20 29.48 998 10 16 0.00 0.00
5:56 am 05:56 Clear 59 15 55 12.8 87 87 S 16 26 29.45 997 10 16 0.00 0.00
6:56 am 06:56 Sunny 60 15.6 56 13.3 86 86 S 12 19 29.46 998 10 16 0.00 0.00
7:56 am 07:56 Sunny 62 16.7 57 13.9 84 84 S 17 28 29.47 998 10 16 0.00 0.00
8:56 am 08:56 Mostly Sunny 63 17.2 58 14.4 84 84 SSW 12 19 29.49 999 10 16 0.00 0.00
9:41 am 09:41 Mostly Cloudy 64 18 57 14 78 78 SW 16 26 29.48 998 10 16 0.00 0.00
9:56 am 09:56 Cloudy 66 18.9 58 14.4 75 75 SW 14 22 29.49 999 10 16 0.00 0.00
10:56 am 10:56 Partly Cloudy 68 20 58 14.4 70 70 SSW 15 24 29.48 998 10 16 0.00 0.00
11:56 am 11:56 Sunny 71 21.7 58 14.4 63 63 SW 7 11 29.49 999 10 16 0.00 0.00
12:56 pm 12:56 Sunny 74 23.3 57 13.9 56 56 SSW 6 9 29.47 998 10 16 0.00 0.00
1:56 pm 13:56 Sunny 76 24.4 56 13.3 50 50 Calm 29.46 998 10 16 0.00 0.00
2:56 pm 14:56 Partly Cloudy 79 26.1 57 13.9 47 47 Calm 29.45 997 10 16 0.00 0.00
3:56 pm 15:56 Mostly Sunny 78 25.6 56 13.3 47 47 E 9 15 29.41 996 10 16 0.00 0.00
4:56 pm 16:56 Sunny 79 26.1 56 13.3 45 45 ESE 9 15 29.41 996 10 16 0.00 0.00
5:56 pm 17:56 Sunny 79 26.1 54 12.2 42 42 Calm 29.41 996 10 16 0.00 0.00
6:56 pm 18:56 Mostly Sunny 77 25 55 12.8 47 47 NNE 14 22 29.40 996 10 16 0.00 0.00
7:15 pm 19:15 Mostly Cloudy with Nearby Thunderstorms 77 25 50 10 39 39 NNE 16 26 29.33 993 10 16 0.00 0.00
7:30 pm 19:30 Mostly Cloudy 75 24 50 10 41 41 NNE 16 26 29.33 993 10 16 0.00 0.00
7:56 pm 19:56 Mostly Cloudy with Nearby Thunderstorms 74 23.3 52 11.1 46 46 NNE 14 22 29.38 995 10 16 0.00 0.00
8:17 pm 20:17 Mostly Cloudy with Light Rain 72 22 50 10 47 47 N 28 44 29.36 994 10 16 0.00 0.00
8:25 pm 20:25 Cloudy with Nearby Thunderstorms 72 22 48 9 44 44 N 30 48 29.36 994 10 16 0.00 0.00
8:53 pm 20:53 Cloudy with Thunderstorms 66 19 55 13 68 68 SSE 13 20 29.47 998 10 16 0.00 0.00
8:56 pm 20:56 Cloudy with Thunderstorms 66 18.9 57 13.9 73 73 SSE 10 17 29.50 999 10 16 0.00 0.00
9:08 pm 21:08 Cloudy with Thunderstorms 66 19 54 12 64 64 E 6 9 29.49 998 10 16 0.00 0.00
9:46 pm 21:46 Cloudy with Light Rain 64 18 54 12 68 68 NNW 24 39 29.50 999 10 16 0.16 4.06
9:56 pm 21:56 Cloudy with Light Rain 63 17.2 53 11.7 70 70 NNW 24 39 29.54 1000 10 16 0.17 4.32
10:15 pm 22:15 Windy with Storms Likely 61 16 55 13 83 83 NW 22 35 29.55 1001 10 16 0.05 1.27
10:42 pm 22:42 Cloudy with Light Rain 59 15 55 13 88 88 NW 21 33 29.57 1001 10 16 0.00 0.00
10:56 pm 22:56 Cloudy with Light Rain 58 14.4 55 12.8 90 90 NW 16 26 29.58 1002 10 16 0.21 5.33
11:22 pm 23:22 Cloudy with Thunderstorms 57 14 55 13 94 94 NNW 16 26 29.61 1003 10 16 0.07 1.78
11:37 pm 23:37 Cloudy with Rain 57 14 55 13 94 94 NNW 21 33 29.61 1003 10 16 0.13 3.30
11:56 pm 23:56 Cloudy with Rain 58 14.4 56 13.3 93 93 NNW 17 28 29.62 1003 10 16 0.22 5.59

Powered by AerisWeather